William P Hobby Airport Houston US
ICAO: KHOU
IATA: HOU
Category: Large
Scheduled Services: Yes

Elevation: 46 ft
TransAlt. 18000 ft.

Airport Communications:
HOUSTON APP:120.05
ATIS:124.6
CLNC DEL:125.45
HOUSTON DEP:28.4
HOUSTON DEP:119.7
GND:121.9
MONTGOMERY CO RDO:122.35
HOBBY TWR:118.7
UNICOM:122.95

KHOU Zoom In..

If Map Doesn't Load, Click Here

Runways:

(A) RW 04 length 7602 ft width 150 ft
ILS 109.90 / hdg 39

(B) RW 12L length 5148 ft width 100 ft
LOC 109.90 / hdg 129

(C) RW 12R length 7602 ft width 150 ft
ILS 111.30 / hdg 129

(D) RW 17 length 6000 ft width 150 ft
LOC 109.90 / hdg 174

(E) RW 22 length 7602 ft width 150 ft
LOC 109.90 / hdg 219

(F) RW 30L length 7602 ft width 150 ft
ILS 111.30 / hdg 309

(G) RW 30R length 5148 ft width 100 ft
LOC 109.90 / hdg 309

(H) RW 35 length 6000 ft width 150 ft
LOC 109.90 / hdg 354

Location; KHOU
Day. 21 / Time. 12.53 Zulu
* Altimeter: 29.96
* Temperature: 28° c. 82.4°f.
* Wind from: 120° Speed 05 kn.
Dewpoint: 25° c.
Visibility: 10 Statute Miles.
Clouds: Few 3000 ft.
Clouds: Scattered 6500 ft.
Clouds: Broken 14000 ft.
Clouds: Overcast 25000 ft.
Conditions: Light Rain.

KHOU 211253Z 12005KT 10SM -RA FEW030 SCT065 BKN140 OVC250 28/25 A2996 RMK AO2 RAB26 SLP148 P0000 T02780250


Wind From 120°
Speed 05 kn.

 
 
jpsmedia.com for Web Design worldairports.se 2018   terms of use